15min,AgWx,beryljct,423,13OCT2021:00:00:00,35.0,12.72,33.6,33.4,34.2,34.6,33.4,92,93,90,0.587,32.0,32.7,30.8,1.732,1.8,7.6,13,2.8,-0.00005,-0.00007,45.0,49.3,24,0,0,.,14.94,0.00,0.00
15min,AgWx,beryljct,423,13OCT2021:00:15:00,34.1,12.72,31.5,31.8,32.7,33.5,31.7,92,93,91,0.560,30.7,31.4,29.7,0,1.5,9.4,16,2.8,-0.00006,-0.00008,45.0,49.3,24,0,70,.,14.95,0.00,0.00
15min,AgWx,beryljct,423,13OCT2021:00:30:00,33.2,12.72,33.6,32.8,32.3,32.8,31.7,94,95,93,0.594,30.8,31.4,29.8,0.833,1.2,325,65,3.0,-0.00007,-0.00009,44.8,49.3,24,0,100,.,14.94,0.00,0.00
15min,AgWx,beryljct,423,13OCT2021:00:45:00,32.6,12.71,33.0,32.7,32.8,33.2,31.9,94,94,93,0.591,31.2,31.7,30.2,1.622,1.5,310,19,2.8,-0.00006,-0.00008,44.7,49.2,24,0,100,.,14.94,0.00,0.00
15min,AgWx,beryljct,423,13OCT2021:01:00:00,32.1,12.67,31.3,31.7,32.0,32.7,31.7,94,95,93,0.568,30.5,31.2,30.1,2.587,2.1,328,15,2.6,-0.00005,-0.00007,44.6,49.2,24,0,100,.,14.94,0.00,0.00
15min,AgWx,beryljct,423,13OCT2021:01:15:00,31.6,12.68,31.8,31.6,30.8,31.7,29.3,94,96,93,0.575,29.4,30.6,27.5,1.995,1.9,338,1.5,2.9,-0.00005,-0.00007,44.5,49.2,24,0,100,.,14.95,0.00,0.00
15min,AgWx,beryljct,423,13OCT2021:01:30:00,31.3,12.65,30.9,31.3,31.5,31.9,31.0,96,96,95,0.568,30.4,30.9,29.9,3.902,2.8,312,14,3.9,-0.00005,-0.00006,44.3,49.2,24,0,100,.,14.94,0.00,0.00
15min,AgWx,beryljct,423,13OCT2021:01:45:00,31.0,12.62,31.3,30.1,30.5,31.3,29.9,95,96,95,0.539,29.3,30.2,28.7,3.113,2.6,293,1.2,3.9,-0.00005,-0.00006,44.2,49.1,24,0,100,.,14.94,0.00,0.00
15min,AgWx,beryljct,423,13OCT2021:02:00:00,30.6,12.61,29.9,29.8,29.8,30.7,29.0,95,96,95,0.531,28.7,29.5,27.7,2.631,2.7,317,13,3.5,-0.00005,-0.00005,44.0,49.1,24,0,0,.,14.94,0.00,0.00
15min,AgWx,beryljct,423,13OCT2021:02:15:00,30.1,12.57,28.5,28.6,29.1,29.8,28.6,96,96,95,0.508,28.0,28.7,27.5,2.696,2.2,302,0.5,3.3,-0.00005,-0.00006,43.9,49.1,24,0,0,.,14.94,0.00,0.00
15min,AgWx,beryljct,423,13OCT2021:02:30:00,29.7,12.56,30.5,29.4,28.8,29.6,28.2,96,96,96,0.530,27.8,28.6,27.1,3.771,3.4,316,9.1,4.5,-0.00004,-0.00004,43.7,49.1,24,0,0,.,14.94,0.00,0.00
15min,AgWx,beryljct,423,13OCT2021:02:45:00,29.5,12.55,30.0,29.5,29.4,30.2,28.6,96,97,96,0.529,28.4,29.3,27.6,3.31,3.6,319,17,4.3,-0.00004,-0.00004,43.6,49.0,24,0,0,.,14.95,0.00,0.00
15min,AgWx,beryljct,423,13OCT2021:03:00:00,29.3,12.54,28.8,28.5,28.6,29.7,27.4,96,96,95,0.508,27.5,28.7,26.0,1.929,2.6,324,19,3.8,-0.00005,-0.00005,43.5,49.0,24,0,0,.,14.94,0.00,0.00
15min,AgWx,beryljct,423,13OCT2021:03:15:00,29.1,12.54,27.2,27.5,28.8,29.4,27.5,96,96,95,0.484,27.8,28.4,26.3,2.696,2.5,335,7.6,3.5,-0.00005,-0.00006,43.3,48.9,24,0,0,.,14.94,0.00,0.00
15min,AgWx,beryljct,423,13OCT2021:03:30:00,28.8,12.54,26.0,26.2,27.8,28.7,26.2,96,96,95,0.459,26.7,27.8,25.0,0,2.0,356,11,3.5,-0.00005,-0.00007,43.2,48.9,24,0,0,.,14.94,0.00,0.00
15min,AgWx,beryljct,423,13OCT2021:03:45:00,28.2,12.54,27.0,26.9,26.6,27.1,26.2,96,96,95,0.476,25.5,26.2,24.9,0,0.1,13,0.3,0.8,-0.00009,-0.00014,43.0,48.8,24,0,0,.,14.94,0.00,0.00
15min,AgWx,beryljct,423,13OCT2021:04:00:00,27.6,12.52,26.9,26.7,26.6,26.9,26.1,96,96,96,0.473,25.7,25.9,25.1,0.438,0.1,14,0.0,0.6,-0.00009,-0.00013,42.9,48.8,24,0,0,.,14.94,0.00,0.00
15min,AgWx,beryljct,423,13OCT2021:04:15:00,27.3,12.5,27.3,26.8,26.4,26.8,25.9,96,97,96,0.478,25.4,26.0,25.0,2.236,1.0,119,83,2.9,-0.00007,-0.00009,42.8,48.7,24,0,0,.,14.95,0.00,0.00
15min,AgWx,beryljct,423,13OCT2021:04:30:00,27.0,12.5,25.9,25.9,25.9,26.8,25.1,97,97,96,0.458,25.0,26.0,24.2,2.828,2.3,170,34,3.2,-0.00005,-0.00006,42.7,48.7,24,0,0,.,14.94,0.00,0.00
15min,AgWx,beryljct,423,13OCT2021:04:45:00,26.8,12.52,26.5,26.0,26.0,26.3,25.8,97,97,96,0.463,25.2,25.5,24.9,2.784,2.5,160,11,3.5,-0.00005,-0.00006,42.6,48.6,24,0,0,.,14.95,0.00,0.00
15min,AgWx,beryljct,423,13OCT2021:05:00:00,27.2,12.52,27.2,27.2,26.8,27.4,26.0,97,98,97,0.489,26.2,26.8,25.2,0.395,2.4,166,13,3.5,-0.00005,-0.00006,42.5,48.6,24,0,0,.,14.94,0.00,0.00
15min,AgWx,beryljct,423,13OCT2021:05:15:00,27.8,12.5,27.8,27.6,27.4,27.7,27.0,98,98,98,0.499,26.8,27.2,26.5,0.504,0.5,177,0.2,1.3,-0.00008,-0.00012,42.3,48.5,24,0,0,.,14.94,0.00,0.00
15min,AgWx,beryljct,423,13OCT2021:05:30:00,28.3,12.51,28.1,28.0,27.7,28.0,27.6,98,98,98,0.508,27.2,27.6,27.1,0,0.1,177,0.0,0.7,-0.00009,-0.00014,42.2,48.5,24,0,0,.,14.94,0.00,0.00
15min,AgWx,beryljct,423,13OCT2021:05:45:00,28.7,12.5,28.0,27.9,28.0,28.1,27.8,98,98,98,0.507,27.5,27.7,27.4,1.074,0.1,169,0.0,1.1,-0.00009,-0.00014,42.1,48.4,24,0,0,.,14.94,0.00,0.00
15min,AgWx,beryljct,423,13OCT2021:06:00:00,28.9,12.49,27.2,27.0,27.4,27.9,27.0,98,98,98,0.489,26.9,27.5,26.5,0,0.1,169,0.1,1.0,0.00001,0.00001,42.0,48.4,24,0,0,.,14.94,0.00,0.00
15min,AgWx,beryljct,423,13OCT2021:06:15:00,28.8,12.49,26.8,26.7,26.8,27.1,26.5,98,98,98,0.483,26.4,26.6,26.1,0,0.2,169,4.6,0.9,0.00001,0.00001,41.9,48.3,24,0,0,.,14.95,0.00,0.00
15min,AgWx,beryljct,423,13OCT2021:06:30:00,28.8,12.48,26.3,26.0,26.5,26.8,26.0,98,98,98,0.469,26.0,26.3,25.5,0.702,0.5,100,52,1.9,0.00001,0.00001,41.9,48.2,24,0,77,.,14.94,0.00,0.00
15min,AgWx,beryljct,423,13OCT2021:06:45:00,28.5,12.49,25.7,25.3,25.6,26.0,25.3,98,98,98,0.453,25.1,25.5,24.7,1.513,1.2,320,20,2.8,0.00002,0.00002,41.8,48.2,24,3,100,.,14.94,0.00,0.00
15min,AgWx,beryljct,423,13OCT2021:07:00:00,28.3,12.51,25.2,25.1,25.2,25.5,25.1,97,98,97,0.448,24.6,24.8,24.4,0.022,1.2,312,7.7,1.8,0.00004,0.00005,41.7,48.1,25,9,100,.,14.94,0.00,0.00
15min,AgWx,beryljct,423,13OCT2021:07:15:00,28.1,12.54,25.3,24.8,24.9,25.2,24.7,97,97,97,0.441,24.2,24.5,23.9,2.85,1.3,333,15,2.9,0.00009,0.00010,41.7,48.1,25,22,100,.,14.94,0.00,0.00
15min,AgWx,beryljct,423,13OCT2021:07:30:00,28.2,12.57,26.1,25.6,25.3,25.6,24.8,97,97,97,0.457,24.6,24.9,24.0,2.148,2.6,343,4.9,3.7,0.00016,0.00018,41.6,48.0,24,44,100,.,14.94,0.00,0.00
15min,AgWx,beryljct,423,13OCT2021:07:45:00,28.6,12.6,27.4,26.8,26.1,26.8,25.6,98,98,97,0.482,25.5,26.2,24.9,1.162,1.7,328,3.8,2.6,0.00023,0.00025,41.6,48.0,24,62,100,.,14.94,0.00,0.00
15min,AgWx,beryljct,423,13OCT2021:08:00:00,29.2,12.67,28.0,27.4,27.1,27.4,26.7,98,98,98,0.496,26.5,26.9,26.2,1.25,0.9,328,0.9,1.5,0.00032,0.00035,41.5,47.9,24,84,100,.,14.94,0.00,0.00
15min,AgWx,beryljct,423,13OCT2021:08:15:00,30.0,12.76,28.7,28.4,27.9,28.4,27.4,98,98,98,0.517,27.5,27.9,26.9,0.943,1.6,328,4.6,2.4,0.00043,0.00046,41.4,47.8,24,117,100,.,14.94,0.00,0.00
15min,AgWx,beryljct,423,13OCT2021:08:30:00,30.9,12.84,29.1,29.0,28.7,29.2,28.4,98,99,98,0.533,28.3,28.8,27.9,3.683,1.5,340,7.5,3.8,0.00052,0.00056,41.4,47.8,24,142,100,.,14.94,0.00,0.00
15min,AgWx,beryljct,423,13OCT2021:08:45:00,31.6,12.98,30.0,29.5,29.1,29.7,28.6,99,99,99,0.544,28.7,29.3,28.2,1.074,1.7,346,34,3.7,0.00058,0.00062,41.4,47.7,24,159,100,.,14.95,0.00,0.00
15min,AgWx,beryljct,423,13OCT2021:09:00:00,32.4,13.12,30.2,29.9,29.7,30.1,29.5,99,99,99,0.554,29.4,29.8,29.1,0.702,0.9,4.2,28,2.7,0.00067,0.00072,41.4,47.7,24,175,100,.,14.94,0.00,0.00
15min,AgWx,beryljct,423,13OCT2021:09:15:00,32.9,13.34,30.0,29.9,29.7,30.1,29.4,99,99,99,0.555,29.4,29.8,29.1,0,0.9,325,54,3.3,0.00079,0.00085,41.5,47.6,24,209,100,.,14.95,0.01,0.00
15min,AgWx,beryljct,423,13OCT2021:09:30:00,33.6,13.51,30.6,30.4,30.1,30.4,29.8,99,99,99,0.566,29.8,30.2,29.5,3.376,1.5,334,50,4.0,0.00081,0.00086,41.5,47.6,24,216,100,.,14.94,0.00,0.00
15min,AgWx,beryljct,423,13OCT2021:09:45:00,34.4,13.77,31.1,30.9,30.5,30.9,30.2,99,99,99,0.580,30.3,30.7,30.0,2.17,2.0,336,29,3.7,0.00093,0.00099,41.6,47.5,24,258,100,.,14.94,0.00,0.00
15min,AgWx,beryljct,423,13OCT2021:10:00:00,35.6,13.96,31.6,31.6,31.4,31.9,30.8,99,99,99,0.595,31.2,31.7,30.6,2.477,1.7,26,44,3.3,0.00116,0.00124,41.8,47.4,24,317,100,.,14.94,0.00,0.00
15min,AgWx,beryljct,423,13OCT2021:10:15:00,36.9,14.16,32.0,31.8,31.8,32.2,31.5,99,99,99,0.601,31.6,32.0,31.3,2.061,0.9,334,29,3.4,0.00129,0.00137,41.9,47.4,24,336,100,.,14.94,0.00,0.00
15min,AgWx,beryljct,423,13OCT2021:10:30:00,38.2,14.63,33.9,32.8,32.3,32.8,31.9,99,99,99,0.627,32.1,32.6,31.7,2.499,0.6,52,62,4.3,0.00144,0.00154,42.1,47.4,24,368,100,.,14.94,0.00,0.00
15min,AgWx,beryljct,423,13OCT2021:10:45:00,40.2,14.65,34.5,33.8,33.3,34.0,32.4,99,99,99,0.653,33.2,33.9,32.2,2.499,2.5,111,41,4.8,0.00252,0.00268,42.3,47.3,24,725,100,.,14.94,0.00,0.00
15min,AgWx,beryljct,423,13OCT2021:11:00:00,42.4,14.48,35.6,35.4,34.9,36.3,33.6,99,99,99,0.696,34.7,36.2,33.4,0.789,2.5,83,25,5.2,0.00250,0.00266,42.6,47.3,24,690,100,.,14.94,0.00,0.00
15min,AgWx,beryljct,423,13OCT2021:11:15:00,44.3,14.52,36.8,36.1,35.7,36.4,34.9,99,99,99,0.713,35.5,36.2,34.8,1.271,2.2,100,46,5.2,0.00270,0.00287,43.0,47.3,24,723,100,.,14.94,0.00,0.00
15min,AgWx,beryljct,423,13OCT2021:11:30:00,45.6,14.6,38.4,36.8,36.6,37.9,35.7,99,99,99,0.731,36.3,37.6,35.5,2.631,2.4,114,45,5.0,0.00270,0.00287,43.4,47.3,24,717,100,.,14.94,0.01,0.00
15min,AgWx,beryljct,423,13OCT2021:11:45:00,46.7,14.09,39.5,37.0,37.5,38.5,36.8,99,99,98,0.731,37.1,38.1,36.5,2.609,2.3,119,31,4.8,0.00276,0.00294,43.8,47.2,24,716,100,.,14.94,0.00,0.00
15min,AgWx,beryljct,423,13OCT2021:12:00:00,47.5,14.16,42.6,39.2,38.0,39.4,37.0,97,98,96,0.785,37.4,38.7,36.5,5.985,2.0,88,49,6.0,0.00280,0.00298,44.3,47.2,24,709,0,.,14.94,0.00,0.00
15min,AgWx,beryljct,423,13OCT2021:12:15:00,48.1,14.04,40.2,40.6,39.2,40.9,38.3,90,97,71,0.606,36.5,38.5,31.8,3.639,3.3,58,37,5.6,0.00238,0.00257,44.9,47.2,24,611,0,.,14.94,0.00,0.00
15min,AgWx,beryljct,423,13OCT2021:12:30:00,48.7,14.05,44.0,43.5,42.1,43.5,40.5,71,73,68,0.697,33.4,35.3,31.5,3.047,2.8,73,47,7.4,0.00310,0.00341,45.4,47.2,24,727,0,.,14.94,0.00,0.00
15min,AgWx,beryljct,423,13OCT2021:12:45:00,49.6,14.03,42.8,43.0,43.0,44.1,42.4,67,72,61,0.578,32.6,35.4,30.3,4.823,4.3,99,32,7.7,0.00317,0.00356,45.9,47.3,24,742,0,.,14.94,0.00,0.00
15min,AgWx,beryljct,423,13OCT2021:13:00:00,50.4,14.07,46.1,44.5,43.7,45.3,42.7,61,65,59,0.624,31.3,33.6,29.7,3.376,3.3,148,32,7.5,0.00339,0.00378,46.4,47.3,24,763,0,.,14.94,0.00,0.00
15min,AgWx,beryljct,423,13OCT2021:13:15:00,51.6,13.96,45.0,44.6,44.6,45.7,43.9,60,63,58,0.592,31.8,34.0,30.5,4.56,3.5,99,40,7.2,0.00313,0.00353,47.0,47.3,24,694,0,.,14.94,0.00,0.00
15min,AgWx,beryljct,423,13OCT2021:13:30:00,52.4,13.93,45.5,44.8,44.6,45.0,43.8,58,61,56,0.584,30.6,32.1,29.3,4.494,3.0,55,42,5.8,0.00275,0.00312,47.5,47.4,24,614,0,.,14.93,0.00,0.00
15min,AgWx,beryljct,423,13OCT2021:13:45:00,53.2,13.95,44.6,45.5,45.3,46.1,44.7,58,61,55,0.598,31.2,33.2,29.9,3.025,2.2,77,45,4.5,0.00237,0.00267,48.0,47.4,24,519,0,.,14.93,0.00,0.00
15min,AgWx,beryljct,423,13OCT2021:14:00:00,53.6,13.93,46.1,45.7,45.7,46.4,45.1,59,61,56,0.614,32.1,33.3,30.5,2.389,2.1,112,43,4.9,0.00212,0.00240,48.5,47.5,24,463,0,.,14.94,0.00,0.00
15min,AgWx,beryljct,423,13OCT2021:14:15:00,53.2,13.92,47.1,46.1,45.9,46.5,45.5,60,64,58,0.628,32.9,34.6,31.7,3.683,4.9,97,22,8.5,0.00176,0.00214,48.9,47.6,24,359,0,.,14.94,0.00,0.00
15min,AgWx,beryljct,423,13OCT2021:14:30:00,52.7,13.95,47.0,46.4,46.5,47.7,45.8,59,64,56,0.607,33.0,35.9,31.5,0.965,3.9,90,22,7.6,0.00229,0.00268,49.3,47.7,24,507,0,.,14.93,0.00,0.00
15min,AgWx,beryljct,423,13OCT2021:14:45:00,53.0,13.91,47.3,47.3,46.9,47.6,46.4,59,63,57,0.645,33.4,35.5,32.0,7.234,4.5,96,18,10.0,0.00223,0.00263,49.6,47.8,24,487,0,.,14.93,0.00,0.00
15min,AgWx,beryljct,423,13OCT2021:15:00:00,53.4,13.85,47.7,47.6,47.5,48.3,46.8,58,61,55,0.623,33.5,35.2,32.3,4.538,5.0,115,21,9.1,0.00240,0.00286,49.9,47.9,24,520,0,.,14.93,0.00,0.00
15min,AgWx,beryljct,423,13OCT2021:15:15:00,53.9,13.9,47.2,47.8,47.6,48.0,47.3,55,58,53,0.638,32.4,33.8,30.9,5.941,4.3,112,23,7.6,0.00231,0.00274,50.1,48.0,24,494,0,.,14.93,0.00,0.00
15min,AgWx,beryljct,423,13OCT2021:15:30:00,54.4,13.84,49.9,48.5,48.2,48.8,47.5,55,59,52,0.618,33.0,35.1,31.0,0.11,3.6,136,34,7.6,0.00211,0.00249,50.4,48.1,24,451,0,.,14.93,0.00,0.00
15min,AgWx,beryljct,423,13OCT2021:15:45:00,55.0,13.87,47.7,48.3,48.6,49.1,48.3,54,57,52,0.600,32.8,34.4,31.5,2.236,2.7,118,40,5.7,0.00187,0.00219,50.6,48.2,24,407,0,.,14.93,0.00,0.00
15min,AgWx,beryljct,423,13OCT2021:16:00:00,55.6,13.85,49.2,48.7,48.5,49.4,47.9,52,55,51,0.636,31.9,33.5,31.0,4.275,2.1,165,80,4.3,0.00161,0.00187,50.8,48.3,24,363,0,.,14.93,0.00,0.00
15min,AgWx,beryljct,423,13OCT2021:16:15:00,55.7,13.84,49.0,48.9,48.8,49.4,48.3,53,55,52,0.638,32.5,33.6,31.5,5.042,2.7,120,33,5.9,0.00141,0.00171,51.0,48.4,24,318,0,.,14.92,0.00,0.00
15min,AgWx,beryljct,423,13OCT2021:16:30:00,55.6,13.82,49.4,49.0,48.9,49.5,48.5,53,56,51,0.628,32.6,34.2,31.5,2.806,2.5,128,14,4.8,0.00116,0.00142,51.1,48.6,24,272,0,.,14.92,0.00,0.00
15min,AgWx,beryljct,423,13OCT2021:16:45:00,55.4,13.86,49.0,48.9,49.1,49.4,48.9,54,56,52,0.618,32.9,34.5,31.9,2.718,2.5,121,19,4.3,0.00091,0.00117,51.2,48.7,24,226,0,.,14.92,0.00,0.00
15min,AgWx,beryljct,423,13OCT2021:17:00:00,54.9,13.84,49.1,49.2,49.2,49.5,48.9,54,59,51,0.702,33.2,35.5,31.7,3.486,1.8,107,21,4.9,0.00035,0.00051,51.2,48.8,24,180,0,.,14.92,0.00,0.00
15min,AgWx,beryljct,423,13OCT2021:17:15:00,54.2,13.89,48.5,48.5,48.9,49.2,48.4,56,60,53,0.684,33.8,35.4,32.9,2.389,3.3,116,5.9,5.4,0.00031,0.00043,51.2,48.9,24,137,0,.,14.92,0.00,0.00
15min,AgWx,beryljct,423,13OCT2021:17:30:00,52.9,13.2,48.5,48.3,48.3,48.5,48.2,59,62,57,0.652,34.7,35.9,33.6,1.929,2.4,128,10,3.1,0.00013,0.00020,51.1,49.0,24,83,0,.,14.92,0.00,0.00
15min,AgWx,beryljct,423,13OCT2021:17:45:00,50.7,13.08,47.2,46.9,47.5,48.3,46.8,59,62,56,0.655,34.0,34.4,33.2,1.951,1.9,127,5.8,3.2,-0.00006,-0.00006,51.0,49.1,24,17,0,.,14.92,0.00,0.00
15min,AgWx,beryljct,423,13OCT2021:18:00:00,48.5,13.04,44.0,44.0,46.1,47.1,44.0,62,70,59,0.681,34.0,34.7,33.5,5.086,3.2,82,28,7.0,-0.00000,0.00002,50.9,49.2,24,9,0,.,14.93,0.00,0.00
15min,AgWx,beryljct,423,13OCT2021:18:15:00,46.5,12.99,42.2,42.5,43.4,44.1,42.5,71,73,70,0.675,34.6,34.9,34.4,4.034,5.0,51,8.7,6.8,0.00002,0.00005,50.7,49.3,24,3,0,.,14.93,0.00,0.00
15min,AgWx,beryljct,423,13OCT2021:18:30:00,44.6,12.97,40.5,40.5,41.0,42.5,40.4,77,79,73,0.674,34.5,34.7,34.4,2.543,3.5,42,4.4,4.7,-0.00006,-0.00007,50.5,49.4,24,0,0,.,14.93,0.00,0.00
15min,AgWx,beryljct,423,13OCT2021:18:45:00,42.9,12.97,39.4,39.8,40.3,41.0,39.5,79,80,77,0.655,34.2,35.0,33.1,4.823,3.1,1.7,45,5.6,-0.00009,-0.00010,50.3,49.5,24,0,0,.,14.93,0.00,0.00
15min,AgWx,beryljct,423,13OCT2021:19:00:00,41.7,12.95,38.4,39.9,40.1,40.7,39.3,77,79,75,0.634,33.5,34.1,32.9,1.798,3.5,350,26,5.4,-0.00006,-0.00006,50.0,49.6,24,0,0,.,14.93,0.00,0.00
15min,AgWx,beryljct,423,13OCT2021:19:15:00,40.6,12.93,40.4,39.3,38.2,39.7,37.3,79,82,75,0.620,32.3,32.9,31.7,2.938,3.3,298,16,4.6,-0.00008,-0.00009,49.8,49.6,24,0,0,.,14.93,0.00,0.00
15min,AgWx,beryljct,423,13OCT2021:19:30:00,39.9,12.94,39.8,39.9,39.8,40.2,39.3,71,76,70,0.590,31.4,32.3,30.7,3.003,3.6,324,20,5.6,-0.00004,-0.00003,49.5,49.7,24,0,0,.,14.93,0.00,0.00
15min,AgWx,beryljct,423,13OCT2021:19:45:00,39.5,12.92,38.8,38.0,39.4,40.0,37.9,72,74,70,0.570,31.0,31.6,30.1,3.266,2.7,360,28,5.1,-0.00008,-0.00008,49.2,49.8,24,0,0,.,14.93,0.00,0.00
15min,AgWx,beryljct,423,13OCT2021:20:00:00,38.8,12.92,39.6,38.9,38.6,38.9,38.0,71,74,70,0.567,30.1,30.5,29.6,2.872,2.6,311,6.3,3.7,-0.00008,-0.00009,49.0,49.8,24,0,0,.,14.93,0.00,0.00
15min,AgWx,beryljct,423,13OCT2021:20:15:00,38.4,12.91,35.2,35.4,38.7,39.7,35.4,71,78,69,0.547,30.0,30.5,29.1,3.047,2.4,302,8.0,3.3,-0.00009,-0.00010,48.7,49.9,24,0,0,.,14.94,0.00,0.00
15min,AgWx,beryljct,423,13OCT2021:20:30:00,37.6,12.89,36.9,35.3,35.0,35.4,34.5,82,84,79,0.579,30.2,30.7,29.5,6.642,4.5,296,8.1,7.4,-0.00005,-0.00005,48.5,49.9,24,0,0,.,14.94,0.00,0.00
15min,AgWx,beryljct,423,13OCT2021:20:45:00,37.0,12.89,35.2,35.5,35.4,37.0,34.3,81,84,76,0.576,30.1,31.0,29.3,5.349,5.0,310,11,6.8,-0.00003,-0.00003,48.2,50.0,24,0,0,.,14.93,0.00,0.00
15min,AgWx,beryljct,423,13OCT2021:21:00:00,36.8,12.88,36.7,35.9,35.7,36.2,35.0,83,84,82,0.590,31.0,31.6,30.1,4.604,5.4,307,11,6.7,-0.00003,-0.00003,48.0,50.0,24,0,0,.,14.94,0.00,0.00
15min,AgWx,beryljct,423,13OCT2021:21:15:00,36.4,12.87,34.0,34.6,35.4,36.2,34.4,83,85,81,0.572,30.7,31.4,30.1,2.565,2.8,315,11,4.5,-0.00010,-0.00012,47.8,50.0,24,0,0,.,14.93,0.00,0.00
15min,AgWx,beryljct,423,13OCT2021:21:30:00,35.9,12.87,34.3,34.3,34.7,35.2,34.1,84,85,83,0.562,30.3,30.9,29.6,4.801,4.2,323,7.1,5.4,-0.00006,-0.00007,47.6,50.0,24,0,0,.,14.94,0.00,0.00
15min,AgWx,beryljct,423,13OCT2021:21:45:00,35.4,12.87,33.9,33.9,33.8,34.4,33.5,85,86,84,0.556,29.7,30.1,29.2,5.459,4.4,314,6.9,5.5,-0.00006,-0.00006,47.3,50.0,24,0,0,.,14.94,0.00,0.00
15min,AgWx,beryljct,423,13OCT2021:22:00:00,34.9,12.86,33.3,33.8,33.6,34.2,33.2,86,87,85,0.560,29.7,30.6,29.2,3.639,4.0,332,10,5.7,-0.00007,-0.00008,47.1,50.0,24,0,0,.,14.94,0.00,0.00
15min,AgWx,beryljct,423,13OCT2021:22:15:00,34.4,12.85,32.0,31.9,32.9,33.7,31.9,87,89,85,0.540,29.4,30.0,29.0,4.626,4.0,328,11,5.0,-0.00008,-0.00008,46.9,50.0,24,0,0,.,14.94,0.00,0.00
15min,AgWx,beryljct,423,13OCT2021:22:30:00,33.9,12.84,32.2,32.5,32.4,33.1,31.7,88,90,86,0.537,29.3,29.8,28.9,3.398,4.9,305,6.1,6.3,-0.00006,-0.00007,46.7,50.0,24,0,0,.,14.94,0.00,0.00
15min,AgWx,beryljct,423,13OCT2021:22:45:00,33.6,12.83,32.6,32.6,32.4,32.7,32.1,88,89,86,0.548,29.2,29.6,28.5,4.406,4.6,305,7.3,6.5,-0.00007,-0.00007,46.5,49.9,24,0,0,.,14.94,0.00,0.00
15min,AgWx,beryljct,423,13OCT2021:23:00:00,33.3,12.82,33.7,32.6,32.5,33.0,32.2,88,88,86,0.549,29.3,29.9,28.5,4.801,4.1,302,12,5.3,-0.00008,-0.00009,46.3,49.9,24,0,0,.,14.94,0.00,0.00
15min,AgWx,beryljct,423,13OCT2021:23:15:00,33.1,12.82,33.7,33.0,32.8,33.3,32.3,86,88,85,0.540,29.2,29.7,28.7,2.916,4.0,317,8.7,5.3,-0.00007,-0.00008,46.1,49.9,24,0,0,.,14.94,0.00,0.00
15min,AgWx,beryljct,423,13OCT2021:23:30:00,32.9,12.81,32.5,32.2,32.7,33.2,31.9,86,88,85,0.543,29.0,29.6,28.1,1.074,2.5,337,7.7,3.3,-0.00012,-0.00014,45.9,49.8,24,0,0,.,14.94,0.00,0.00
15min,AgWx,beryljct,423,13OCT2021:23:45:00,32.3,12.81,31.9,31.6,31.3,32.3,30.7,89,91,87,0.539,28.6,29.4,27.5,0.723,0.4,41,27,1.5,-0.00021,-0.00031,45.7,49.8,24,0,0,.,14.94,0.00,0.00
15min,AgWx,bigpiney,439,13OCT2021:00:00:00,33.7,12.16,30.3,30.1,30.1,30.3,30.0,91,92,90,0.509,27.9,28.3,27.5,5.897,5.0,36,9.2,7.9,0.00004,0.00005,44.0,45.3,48,0,0,0.0,5.75,0.00,0.00
15min,AgWx,bigpiney,439,13OCT2021:00:15:00,33.6,12.18,30.6,30.2,30.1,30.3,30.1,89,90,88,0.503,27.3,27.5,27.1,5.327,5.7,37,16,8.4,0.00005,0.00006,44.0,45.3,48,0,0,0.0,5.75,0.00,0.00
15min,AgWx,bigpiney,439,13OCT2021:00:30:00,33.4,12.16,31.3,31.0,30.8,31.1,30.2,83,89,79,0.462,26.2,27.3,25.2,8.88,8.1,329,17,12.5,0.00009,0.00010,43.9,45.3,48,0,0,0.0,5.75,0.00,0.00
15min,AgWx,bigpiney,439,13OCT2021:00:45:00,33.1,12.16,31.2,30.9,31.0,31.1,30.9,79,81,76,0.446,25.3,26.0,24.4,8.35,7.1,313,9.1,11.4,0.00011,0.00013,43.9,45.3,48,0,0,0.0,5.75,0.00,0.00
15min,AgWx,bigpiney,439,13OCT2021:01:00:00,33.0,12.16,31.1,30.7,30.7,31.0,30.6,78,80,76,0.453,24.6,25.1,24.2,5.371,7.0,302,9.7,9.8,0.00011,0.00013,43.9,45.2,48,0,0,0.0,5.75,0.00,0.00
15min,AgWx,bigpiney,439,13OCT2021:01:15:00,32.8,12.15,31.0,30.7,30.8,30.9,30.7,75,78,73,0.432,23.8,24.6,23.1,7.41,9.5,284,8.7,13.8,0.00014,0.00016,43.8,45.2,48,0,0,0.0,5.75,0.00,0.00
15min,AgWx,bigpiney,439,13OCT2021:01:30:00,32.6,12.15,30.8,30.6,30.6,30.8,30.6,73,75,72,0.423,23.1,23.8,22.7,7.87,8.6,288,8.8,10.9,0.00014,0.00017,43.8,45.2,48,0,0,0.0,5.75,0.00,0.00
15min,AgWx,bigpiney,439,13OCT2021:01:45:00,32.5,12.15,30.9,30.6,30.6,30.7,30.5,74,75,73,0.424,23.3,23.7,22.9,8.09,6.9,293,6.8,9.5,0.00013,0.00015,43.8,45.2,48,0,0,0.0,5.75,0.00,0.00
15min,AgWx,bigpiney,439,13OCT2021:02:00:00,32.4,12.13,30.8,30.6,30.7,30.8,30.5,71,73,69,0.404,22.4,22.9,21.9,6.27,8.3,303,10,11.6,0.00015,0.00018,43.8,45.1,48,0,0,0.0,5.75,0.00,0.00
15min,AgWx,bigpiney,439,13OCT2021:02:15:00,32.3,12.13,30.6,30.4,30.5,30.7,30.2,70,72,69,0.400,21.9,22.4,21.6,0.986,4.4,344,19,7.8,0.00012,0.00015,43.7,45.1,48,0,0,0.0,5.75,0.00,0.00
15min,AgWx,bigpiney,439,13OCT2021:02:30:00,32.1,12.13,30.5,30.2,30.4,30.6,30.2,71,74,69,0.417,22.1,22.9,21.4,14.6,6.0,319,21,17.1,0.00013,0.00016,43.7,45.1,48,0,0,0.0,5.75,0.00,0.00
15min,AgWx,bigpiney,439,13OCT2021:02:45:00,32.0,12.11,30.3,30.1,30.3,30.4,30.1,72,73,71,0.410,22.3,22.7,22.0,12.85,12.6,292,8.7,17.0,0.00016,0.00019,43.7,45.1,48,0,0,0.0,5.75,0.00,0.00
15min,AgWx,bigpiney,439,13OCT2021:03:00:00,31.9,12.11,29.9,29.7,30.0,30.3,29.7,72,73,71,0.404,22.2,22.4,21.9,9.45,10.1,314,9.1,14.6,0.00015,0.00018,43.6,45.1,48,0,0,0.0,5.75,0.00,0.00
15min,AgWx,bigpiney,439,13OCT2021:03:15:00,31.7,12.11,29.3,29.1,29.5,29.8,29.1,74,74,72,0.402,22.1,22.3,21.8,11.51,9.9,313,7.5,14.1,0.00014,0.00016,43.6,45.1,48,0,0,0.0,5.75,0.00,0.00
15min,AgWx,bigpiney,439,13OCT2021:03:30:00,31.3,12.1,28.6,28.4,28.8,29.1,28.4,75,76,74,0.402,22.0,22.2,21.7,6.642,8.9,303,6.8,12.4,0.00012,0.00015,43.6,45.0,48,0,0,0.0,5.75,0.00,0.00
15min,AgWx,bigpiney,439,13OCT2021:03:45:00,30.7,12.1,27.9,28.0,28.3,28.6,27.9,75,76,74,0.395,21.6,21.9,21.4,5.174,7.0,291,7.0,9.3,0.00011,0.00013,43.6,45.1,48,0,0,0.0,5.75,0.00,0.00
15min,AgWx,bigpiney,439,13OCT2021:04:00:00,30.1,12.1,28.0,27.9,27.9,28.0,27.7,75,77,73,0.377,20.9,21.5,20.4,7.234,7.3,288,6.7,11.4,0.00011,0.00014,43.5,45.0,48,0,0,0.0,5.75,0.00,0.00
15min,AgWx,bigpiney,439,13OCT2021:04:15:00,29.6,12.08,28.2,28.0,28.0,28.2,27.9,72,73,72,0.377,20.3,20.5,20.2,12.71,10.9,292,7.2,14.6,0.00014,0.00017,43.5,45.1,48,0,0,0.0,5.75,0.00,0.00
15min,AgWx,bigpiney,439,13OCT2021:04:30:00,29.2,12.08,27.4,27.3,27.7,28.2,27.3,75,77,73,0.387,20.7,21.0,20.4,6.204,9.0,280,8.9,13.9,0.00012,0.00015,43.4,45.0,48,0,0,0.0,5.75,0.00,0.00
15min,AgWx,bigpiney,439,13OCT2021:04:45:00,28.8,12.07,27.7,27.4,27.3,27.5,27.0,76,77,75,0.380,20.7,21.0,20.5,8.62,7.7,270,8.0,10.4,0.00011,0.00013,43.4,45.0,48,0,0,0.0,5.75,0.00,0.00
15min,AgWx,bigpiney,439,13OCT2021:05:00:00,28.5,12.07,26.9,26.9,27.3,27.5,26.9,74,75,74,0.367,20.2,20.6,19.7,2.762,4.8,264,13,9.0,0.00010,0.00012,43.4,45.0,48,0,0,0.0,5.75,0.00,0.00
15min,AgWx,bigpiney,439,13OCT2021:05:15:00,28.0,12.06,27.4,26.7,26.4,26.9,26.1,74,75,73,0.360,19.3,19.7,19.0,0,0.4,214,47,2.3,0.00002,0.00003,43.4,45.0,48,0,0,0.0,5.75,0.00,0.00
15min,AgWx,bigpiney,439,13OCT2021:05:30:00,27.2,12.06,22.8,22.3,25.1,26.9,22.1,75,83,72,0.339,18.4,19.3,16.8,3.529,2.4,75,29,4.5,0.00006,0.00008,43.3,44.9,48,0,0,0.0,5.75,0.00,0.00
15min,AgWx,bigpiney,439,13OCT2021:05:45:00,26.2,12.05,22.0,22.3,22.3,22.7,21.8,84,85,82,0.343,18.1,18.9,17.4,0.899,2.5,62,28,3.6,0.00004,0.00005,43.3,44.9,48,0,0,0.0,5.75,0.00,0.00
15min,AgWx,bigpiney,439,13OCT2021:06:00:00,25.3,12.04,21.7,21.7,22.6,23.5,21.7,83,85,82,0.327,18.1,19.4,17.0,3.091,3.3,48,9.8,4.4,0.00005,0.00006,43.3,44.9,48,0,0,0.0,5.75,0.00,0.00
15min,AgWx,bigpiney,439,13OCT2021:06:15:00,24.4,12.03,20.7,20.9,21.9,22.6,20.9,83,84,82,0.324,17.6,18.4,16.9,2.762,2.6,98,39,3.6,0.00004,0.00005,43.2,44.9,48,0,0,0.0,5.75,0.00,0.00
15min,AgWx,bigpiney,439,13OCT2021:06:30:00,23.6,12.02,20.6,20.3,19.4,20.9,18.2,86,89,84,0.334,16.0,17.7,14.3,3.661,3.0,202,17,4.6,0.00003,0.00005,43.2,44.9,48,2,0,0.0,5.75,0.00,0.00
15min,AgWx,bigpiney,439,13OCT2021:06:45:00,22.8,12.03,20.7,20.4,20.8,21.5,19.9,87,89,85,0.322,17.5,18.6,16.7,5.086,3.9,225,10,6.1,0.00004,0.00006,43.1,44.8,48,9,0,0.0,5.75,0.00,0.00
15min,AgWx,bigpiney,439,13OCT2021:07:00:00,22.4,12.04,21.7,21.2,20.3,21.2,19.5,86,88,85,0.343,16.9,18.2,15.8,3.354,3.3,203,15,4.9,-0.00006,-0.00003,43.1,44.8,48,17,0,0.0,5.75,0.00,0.00
15min,AgWx,bigpiney,439,13OCT2021:07:15:00,22.2,12.1,22.5,22.0,21.2,22.0,20.2,86,88,85,0.344,17.7,18.4,16.3,2.587,3.7,213,11,5.0,0.00002,0.00006,43.1,44.8,48,84,0,0.0,5.75,0.00,0.00
15min,AgWx,bigpiney,439,13OCT2021:07:30:00,22.8,12.22,24.7,24.3,23.4,24.3,22.0,84,86,82,0.372,19.3,20.1,18.1,3.42,2.9,204,19,4.2,0.00016,0.00021,43.0,44.8,48,129,0,0.0,5.75,0.00,0.00
15min,AgWx,bigpiney,439,13OCT2021:07:45:00,24.3,12.31,27.6,26.9,25.6,26.9,24.3,81,84,76,0.381,20.6,21.3,20.0,0,1.6,253,32,3.2,0.00032,0.00037,43.0,44.8,48,173,0,0.0,5.75,0.00,0.00
15min,AgWx,bigpiney,439,13OCT2021:08:00:00,26.5,12.58,28.2,28.0,27.8,28.2,26.9,74,78,72,0.376,20.7,21.3,20.0,2.105,0.7,322,19,3.0,0.00050,0.00055,43.0,44.7,48,217,0,0.0,5.75,0.00,0.00
15min,AgWx,bigpiney,439,13OCT2021:08:15:00,28.9,13.3,29.4,29.3,28.9,29.5,28.0,71,74,66,0.362,20.5,21.5,19.4,1.622,1.5,342,18,4.0,0.00071,0.00080,42.9,44.7,48,261,0,0.0,5.75,0.00,0.00